[Date Prev][Date Next][Thread Prev][Thread Next] - [Date Index][Thread Index][Author Index]
MIR & ISS Keps 3-12
- Subject: [sarex] MIR & ISS Keps 3-12
- From: "Dr Dave Larsen [ PhD ]" <doc@xxxxxxxxxxx>
- Date: Fri, 12 Mar 1999 02:09:16 -0800
MIR
1 16609U 86017A 99071.14580586 .00030325 00000-0 22541-3 0 3047
2 16609 51.6613 121.2916 0011976 229.1424 130.8545 15.72468739746135
ISS
1 25544U 98067A 99071.15070733 .00036428 00000-0 47109-3 0 3881
2 25544 51.5945 326.3581 0004719 207.3049 152.7804 15.58553309 17453
----
Via the sarex mailing list at AMSAT.ORG courtesy of AMSAT-NA.
To unsubscribe, send "unsubscribe sarex" to Majordomo@amsat.org
AMSAT Home